Hourly Data Report for October 10, 2014

All times are specified in Local Standard Time (LST). Add 1 hour to adjust for Daylight Saving Time where and when it is observed.

ARVIAT A
NUNAVUT

61°05'38.000" N
94°04'18.000" W
10.40 m
2300427
71174
YEK

Download Data

Hourly Data (October 2014)
Hourly Data Report for October 10, 2014
Temp Definition
°C
Dew Point Temp Definition
°C
Rel Hum Definition
%
Wind Dir Definition
10's deg

Wind Spd Definition
km/h
Visibility Definition
km
Stn Press Definition
kPa
Hmdx Definition


Wind Chill Definition


Weather Definition


TIME
00:00 Legend Double Dagger -2.6 -5.3 82 32 22 16.1 102.06   -9 LegendNANA
01:00 Legend Double Dagger -2.8 -5.9 79 33 26 16.1 102.03   -10 LegendNANA
02:00 Legend Double Dagger -3.0 -5.9 81 34 32 16.1 101.99   -11 LegendNANA
03:00 Legend Double Dagger -3.0 -5.3 84 31 28 16.1 101.93   -10 LegendNANA
04:00 Legend Double Dagger -3.7 -5.6 87 32 28 16.1 101.89   -11 LegendNANA
05:00 Legend Double Dagger -3.9 -5.3 90 32 28 16.1 101.83   -11 LegendNANA
06:00 Legend Double Dagger -3.4 -4.9 89 32 26 16.1 101.80   -10 LegendNANA
07:00 Legend Double Dagger -3.3 -4.9 89 33 30 16.1 101.75   -11 LegendNANA
08:00 Legend Double Dagger -3.1 -4.7 89 32 30 16.1 101.67   -11 LegendNANA
09:00 Legend Double Dagger -2.9 -4.6 88 33 34 16.1 101.61   -11 LegendNANA
10:00 Legend Double Dagger -3.0 -4.8 88 32 32 9.7 101.57   -11 Fog
11:00 Legend Double Dagger -2.7 -4.4 88 31 24 12.9 101.52   -9 LegendNANA
12:00 Legend Double Dagger -2.5 -4.6 86 32 28 16.1 101.46   -10 LegendNANA
13:00 Legend Double Dagger -2.0 -4.0 86 32 28 16.1 101.40   -9 LegendNANA
14:00 Legend Double Dagger -1.4 -3.4 86 34 21 16.1 101.34   -7 LegendNANA
15:00 Legend Double Dagger -1.7 -3.3 89 34 21 16.1 101.28   -8 LegendNANA
16:00 Legend Double Dagger -1.5 -3.2 88 33 18 16.1 101.25   -7 LegendNANA
17:00 Legend Double Dagger -1.3 -3.2 87 28 13 16.1 101.18   -6 LegendNANA
18:00 Legend Double Dagger -0.8 -2.7 87 28 17 16.1 101.11   -6 LegendNANA
19:00 Legend Double Dagger -0.8 -2.5 88 27 13 16.1 101.05   -5 LegendNANA
20:00 Legend Double Dagger -0.7 -2.3 89 28 17 16.1 101.01   -6 LegendNANA
21:00 Legend Double Dagger -0.5 -2.1 89 29 17 16.1 100.93   -5 LegendNANA
22:00 Legend Double Dagger -0.5 -1.6 92 29 17 16.1 100.86   -5 LegendNANA
23:00 Legend Double Dagger -0.8 -1.5 95 27 11 16.1 100.79   -5 LegendNANA

Notes on Data Quality.

Legend

  • E = Estimated
  • M = Missing
  • NA = Not Available
  • ‡ = Partner data that is not subject to review by the National Climate Archives
Date modified: